Flag for Germany Weather past 2 weeks in Dreieich, Hesse, Germany

Now
62 °F

Partly sunny.


Feels Like: 62 °F
Forecast: 61 / 74 °F
Wind: 2 mph from Southwest

Location: Frankfurt / M-Flughafen

Current Time: Sep 19, 2014 at 8:24:18 AM

Latest Report: Sep 19, 2014 at 8:00 AM


Visibility: 9 mi

Pressure: 29.90 "Hg

Humidity: 92%

Dew point: 60 °F

Location of DreieichLocation

Historic Weather in Dreieich — Graph

°F

Dreieich temperature yesterday

Maximum temperature yesterday: 76 °F (at 4:00 PM)
Minimum temperature yesterday: 59 °F (at 3:00 AM)
Average temperature yesterday: 66 °F

Past Weeks' High & Low Weather Summary

 TemperatureHumidityPressure
High79 °F (Sep 6, 4:00 PM)97% (Sep 6, 7:00 AM)30.19 "Hg (Sep 6, 7:00 AM)
Low47 °F (Sep 11, 4:00 AM)43% (Sep 9, 6:00 PM)29.85 "Hg (Sep 6, 6:00 PM)
Average64 °F77%30.01 "Hg
* Reported Sep 4 7:00 AM — Sep 19 7:00 AM, Dreieich, Weather by CustomWeather, © 2014

Note: Actual official high and low records may vary slightly from our data, if they occured in-between our weather recording intervals... More about our weather records

Advertising

Dreieich weather history for previous 24 hours

 ConditionsComfort  
Time TempWeatherWind HumidityBarometerVisibility
7:00 AM
Sep 19
63 °FPassing clouds.2 mph92%29.89 "Hg9 mi
6:00 AM63 °FLow clouds.2 mph93%29.89 "Hg11 mi
5:00 AM61 °FPassing clouds.1 mph95%29.88 "Hg12 mi
4:00 AM61 °FPassing clouds.1 mph94%29.88 "Hg16 mi
3:00 AM63 °FPassing clouds.1 mph93%29.88 "Hg16 mi
2:00 AM64 °FOvercast.2 mph93%29.89 "Hg16 mi
1:00 AM65 °FPassing clouds.1 mph89%29.89 "Hg19 mi
12:00 AM67 °FOvercast.1 mph85%29.89 "Hg19 mi
11:00 PM
Sep 18
67 °FOvercast.2 mph83%29.88 "Hg19 mi
10:00 PM67 °FSprinkles. Overcast.2 mph84%29.88 "Hg19 mi
9:00 PM68 °FOvercast.2 mph82%29.88 "Hg19 mi
8:00 PM70 °FPassing clouds.2 mph79%29.87 "Hg19 mi
7:00 PM72 °FOvercast.1 mph71%29.86 "Hg19 mi
6:00 PM74 °FOvercast.1 mph66%29.86 "Hg17 mi
5:00 PM75 °FPartly sunny.2 mph63%29.85 "Hg16 mi
4:00 PM76 °FPartly sunny.2 mph63%29.86 "Hg16 mi
3:00 PM72 °FPartly sunny.1 mph68%29.87 "Hg16 mi
2:00 PM71 °FOvercast.1 mph71%29.88 "Hg16 mi
1:00 PM69 °FOvercast.2 mph74%29.88 "Hg16 mi
12:00 PM67 °FOvercast.1 mph79%29.90 "Hg16 mi
11:00 AM65 °FOvercast.3 mph84%29.90 "Hg12 mi
10:00 AM62 °FOvercast.3 mph88%29.89 "Hg12 mi
9:00 AM60 °FOvercast.3 mph92%29.88 "Hg14 mi
8:00 AM60 °FCool.3 mph92%29.88 "HgN/A
Weather by CustomWeather, © 2014

See weather overviewHow to use our weather pages